United States

Ashburn, VA Weather Archive

Below you will find the last 24 hours of weather readings for Ashburn VA

Ashburn VA Today's Weather Data

Observed at: Ashburn, VA

Hour Observerd Temp Pressure Visibility Humidity Dew Point Wind
10:00 Fair 41°F (5°C) 103.45 kPa 10 miles 93% 39.1°F (4°C) 1 mph SW 232°2 mph
09:00 Fair 37°F (2.8°C) 103.35 kPa 10 miles 97% 36.2°F (2.4°C) 1 mph W 270°2 mph
08:00 Fair 33°F (0.6°C) 103.45 kPa 10 miles 96% 32°F (-0°C) 1 mph SSE 153°
07:00 Fair 35°F (1.7°C) 103.35 kPa 10 miles 95% 33.7°F (1°C) 1 mph SSW 210°
06:00 Fair 36°F (2.2°C) 103.25 kPa 10 miles 95% 34.7°F (1.5°C) 1 mph NW 326°
05:00 Fair 36°F (2.2°C) 103.18 kPa 10 miles 95% 34.7°F (1.5°C) 1 mph N 6°2 mph
04:00 Fair 36°F (2.2°C) 103.12 kPa 10 miles 94% 34.4°F (1.4°C) 1 mph N 5°2 mph
03:00 Fair 38°F (3.3°C) 102.98 kPa 10 miles 93% 36.2°F (2.3°C) 1 mph NNE 23°2 mph
02:00 Fair 41°F (5°C) 102.95 kPa 10 miles 88% 37.7°F (3.2°C) 1 mph NNW 330°2 mph
01:00 Fair 41°F (5°C) 102.91 kPa 10 miles 89% 38°F (3.3°C) 1 mph NNW 348°2 mph
00:00 Fair 43°F (6.1°C) 102.88 kPa 10 miles 85% 38.8°F (3.8°C) 1 mph N 7°2 mph
23:00 Fair 44°F (6.7°C) 102.88 kPa 10 miles 84% 39.5°F (4.2°C) 1 mph NNE 26°2 mph
22:00 Fair 46°F (7.8°C) 102.64 kPa 10 miles 88% 42.7°F (5.9°C) 1 mph SW 225°2 mph
21:00 Fair 46°F (7.8°C) 102.54 kPa 10 miles 87% 42.4°F (5.8°C) 1 mph NW 315°3 mph
20:00 Overcast 48°F (8.9°C) 102.3 kPa 10 miles 87% 44.3°F (6.8°C) 1 mph NW 315°2 mph
19:00 Fair 49°F (9.4°C) 102.4 kPa 10 miles 85% 44.7°F (7.1°C) 1 mph NE 45°4 mph
18:00 Overcast 51°F (10.6°C) 102.3 kPa 10 miles 76% 43.7°F (6.5°C) 1 mph NE 45°4 mph
17:00 Overcast 52°F (11.1°C) 102.17 kPa 10 miles 72% 43.3°F (6.3°C) 1 mph W 270°3 mph
16:00 Overcast 53°F (11.7°C) 101.93 kPa 10 miles 72% 44.2°F (6.8°C) 1 mph W 270°4 mph
15:00 Overcast 53°F (11.7°C) 101.93 kPa 10 miles 72% 44.2°F (6.8°C) 2 mph NW 325°6 mph
14:00 Overcast 53°F (11.7°C) 101.86 kPa 10 miles 74% 44.9°F (7.2°C) 2 mph NNE 12°6 mph
13:00 Overcast 50°F (10°C) 101.76 kPa 10 miles 82% 44.7°F (7.1°C) 2 mph NNW 344°5 mph
12:00 Mostly Cloudy 49°F (9.4°C) 101.69 kPa 10 miles 86% 45°F (7.2°C) 1 mph NNE 32°5 mph
11:00 Overcast 48°F (8.9°C) 101.63 kPa 10 miles 93% 46.1°F (7.8°C) 2 mph NNW 340°6 mph


Home | Earthquakes | About Us | Contact Us | Privacy

Copyright Friendly Forecast 2012 - 2020